,,Stat6,,Stat2,,Stat8,,Stat9,,Stat10,,Wind1,,Wind1,
time,status,PA1M_AVG,status,PR1M_SUM,status,RH1M_AVG,status,SR1M_AVG,status,TA1M_AVG,status,W1dAve1m,status,W1sAve1m,
2008-07-25, 00:00:00,VALID,917.272,VALID,0,VALID,100,VALID,-0.0849042,VALID,19.4,VALID,200,VALID,0,
2008-07-25, 00:01:00,VALID,917.259,VALID,0,VALID,100,VALID,-0.101885,VALID,19.3933,VALID,200,VALID,0,
2008-07-25, 00:02:00,VALID,917.243,VALID,0,VALID,100,VALID,-0.0339617,VALID,19.3711,VALID,200,VALID,0,
2008-07-25, 00:03:00,VALID,917.252,VALID,0,VALID,100,VALID,-0.101885,VALID,19.3389,VALID,200,VALID,0,
2008-07-25, 00:04:00,VALID,917.252,VALID,0,VALID,100,VALID,-0.101885,VALID,19.3256,VALID,200,VALID,0,
2008-07-25, 00:05:00,VALID,917.218,VALID,0,VALID,100,VALID,-0.135847,VALID,19.3029,VALID,200,VALID,0,
2008-07-25, 00:06:00,VALID,917.204,VALID,0,VALID,100,VALID,-0.101885,VALID,19.3516,VALID,127,VALID,0.262109,
2008-07-25, 00:07:00,VALID,917.173,VALID,0,VALID,100,VALID,-0.101885,VALID,19.3351,VALID,31,VALID,1.01602,
2008-07-25, 00:08:00,VALID,917.151,VALID,0,VALID,100,VALID,-0.0509425,VALID,19.2732,VALID,26,VALID,0.593217,
2008-07-25, 00:09:00,VALID,917.118,VALID,0,VALID,100,VALID,-0.0339617,VALID,19.2116,VALID,19,VALID,0.927951,
2008-07-25, 00:10:00,VALID,917.105,VALID,0,VALID,100,VALID,-0.0679233,VALID,19.1986,VALID,17,VALID,0.856585,
2008-07-25, 00:11:00,VALID,917.072,VALID,0,VALID,100,VALID,-0.0679233,VALID,19.1792,VALID,27,VALID,0.809152,
2008-07-25, 00:12:00,VALID,917.047,VALID,0,VALID,100,VALID,-0.0849042,VALID,19.1864,VALID,26,VALID,0.804155,
2008-07-25, 00:13:00,VALID,917.013,VALID,0,VALID,100,VALID,-0.0509425,VALID,19.1337,VALID,9,VALID,1.04127,
2008-07-25, 00:14:00,VALID,916.984,VALID,0,VALID,100,VALID,-0.101885,VALID,19.0851,VALID,18,VALID,1.17243,
2008-07-25, 00:15:00,VALID,916.96,VALID,0,VALID,100,VALID,-0.0679233,VALID,19.0723,VALID,19,VALID,1.04705,
2008-07-25, 00:16:00,VALID,916.921,VALID,0,VALID,100,VALID,-0.118866,VALID,19.0561,VALID,24,VALID,1.35729,
2008-07-25, 00:17:00,VALID,916.899,VALID,0,VALID,100,VALID,-0.0509425,VALID,19.0299,VALID,22,VALID,1.02222,
2008-07-25, 00:18:00,VALID,916.874,VALID,0,VALID,100,VALID,-0.0679233,VALID,19.0299,VALID,11,VALID,0.725868,
2008-07-25, 00:19:00,VALID,916.865,VALID,0,VALID,100,VALID,-0.0509425,VALID,19.0137,VALID,352,VALID,0.74201,
2008-07-25, 00:20:00,VALID,916.853,VALID,0,VALID,100,VALID,-0.0679233,VALID,18.9845,VALID,348,VALID,0.26543,
2008-07-25, 00:21:00,VALID,916.853,VALID,0,VALID,100,VALID,-0.101885,VALID,18.9945,VALID,14,VALID,0.0024858,
2008-07-25, 00:22:00,VALID,916.862,VALID,0,VALID,100,VALID,-0.0339617,VALID,19.0167,VALID,24,VALID,0.833212,
2008-07-25, 00:23:00,VALID,916.884,VALID,0,VALID,100,VALID,-0.0509425,VALID,19.0229,VALID,27,VALID,1.22436,
2008-07-25, 00:24:00,VALID,916.891,VALID,0,VALID,100,VALID,-0.0509425,VALID,19.0396,VALID,31,VALID,1.46094,
2008-07-25, 00:25:00,VALID,916.924,VALID,0,VALID,100,VALID,-0.0679233,VALID,19.0362,VALID,27,VALID,1.11679,
2008-07-25, 00:26:00,VALID,916.913,VALID,0,VALID,100,VALID,-0.0339617,VALID,19.0431,VALID,23,VALID,1.29082,
2008-07-25, 00:27:00,VALID,916.904,VALID,0,VALID,100,VALID,-0.101885,VALID,19.0204,VALID,18,VALID,0.441229,
2008-07-25, 00:28:00,VALID,916.893,VALID,0,VALID,100,VALID,-0.0339617,VALID,18.9812,VALID,8,VALID,0,
2008-07-25, 00:29:00,VALID,916.877,VALID,0,VALID,100,VALID,-0.0849042,VALID,18.962,VALID,22,VALID,0,
2008-07-25, 00:30:00,VALID,916.871,VALID,0,VALID,100,VALID,-0.0849042,VALID,18.9653,VALID,24,VALID,0,
2008-07-25, 00:31:00,VALID,916.902,VALID,0,VALID,100,VALID,-0.0679233,VALID,18.9555,VALID,23,VALID,0,
2008-07-25, 00:32:00,VALID,916.925,VALID,0,VALID,100,VALID,-0.0849042,VALID,18.975,VALID,24,VALID,0,
2008-07-25, 00:33:00,VALID,916.945,VALID,0,VALID,100,VALID,-0.152827,VALID,18.9822,VALID,12,VALID,0.141387,
2008-07-25, 00:34:00,VALID,916.963,VALID,0,VALID,100,VALID,-0.169808,VALID,18.9657,VALID,18,VALID,1.01858,
2008-07-25, 00:35:00,VALID,916.967,VALID,0,VALID,100,VALID,-0.135847,VALID,18.9563,VALID,9,VALID,0.108994,
2008-07-25, 00:36:00,VALID,916.972,VALID,0,VALID,100,VALID,-0.135847,VALID,18.956,VALID,14,VALID,0.231771,
2008-07-25, 00:37:00,VALID,916.97,VALID,0,VALID,100,VALID,-0.169808,VALID,18.9567,VALID,6,VALID,0.637695,
2008-07-25, 00:38:00,VALID,916.953,VALID,0,VALID,100,VALID,-0.135847,VALID,18.9498,VALID,338,VALID,0.153125,
2008-07-25, 00:39:00,VALID,916.944,VALID,0,VALID,100,VALID,-0.169808,VALID,18.9275,VALID,317,VALID,0,
2008-07-25, 00:40:00,VALID,916.904,VALID,0,VALID,100,VALID,-0.118866,VALID,18.9106,VALID,328,VALID,0,
2008-07-25, 00:41:00,VALID,916.886,VALID,0,VALID,100,VALID,-0.135847,VALID,18.9076,VALID,329,VALID,0,
2008-07-25, 00:42:00,VALID,916.844,VALID,0,VALID,100,VALID,-0.169808,VALID,18.9113,VALID,300,VALID,0,
2008-07-25, 00:43:00,VALID,916.809,VALID,0,VALID,100,VALID,-0.186789,VALID,18.8846,VALID,307,VALID,0,
2008-07-25, 00:44:00,VALID,916.783,VALID,0,VALID,100,VALID,-0.152827,VALID,18.8914,VALID,319,VALID,0,
2008-07-25, 00:45:00,VALID,916.761,VALID,0,VALID,100,VALID,-0.186789,VALID,18.9143,VALID,321,VALID,0,
2008-07-25, 00:46:00,VALID,916.739,VALID,0,VALID,100,VALID,-0.169808,VALID,18.8881,VALID,331,VALID,0,
2008-07-25, 00:47:00,VALID,916.726,VALID,0,VALID,100,VALID,-0.20377,VALID,18.8981,VALID,331,VALID,0,
2008-07-25, 00:48:00,VALID,916.709,VALID,0,VALID,100,VALID,-0.0509425,VALID,18.8974,VALID,331,VALID,0,
2008-07-25, 00:49:00,VALID,916.695,VALID,0,VALID,100,VALID,-0.0339617,VALID,18.8897,VALID,336,VALID,0,
2008-07-25, 00:50:00,VALID,916.688,VALID,0,VALID,100,VALID,-0.0849042,VALID,18.8867,VALID,337,VALID,0,
2008-07-25, 00:51:00,VALID,916.692,VALID,0,VALID,100,VALID,-0.0679233,VALID,18.8802,VALID,337,VALID,0,
2008-07-25, 00:52:00,VALID,916.702,VALID,0,VALID,100,VALID,-0.0679233,VALID,18.8702,VALID,337,VALID,0,
2008-07-25, 00:53:00,VALID,916.704,VALID,0,VALID,100,VALID,0,VALID,18.8862,VALID,337,VALID,0,
2008-07-25, 00:54:00,VALID,916.689,VALID,0,VALID,100,VALID,-0.0169808,VALID,18.9224,VALID,337,VALID,0,
2008-07-25, 00:55:00,VALID,916.643,VALID,0,VALID,100,VALID,-0.0339617,VALID,18.9613,VALID,337,VALID,0,
2008-07-25, 00:56:00,VALID,916.605,VALID,0,VALID,100,VALID,-0.0339617,VALID,18.9638,VALID,337,VALID,0,
2008-07-25, 00:57:00,VALID,916.567,VALID,0,VALID,100,VALID,-0.0339617,VALID,18.9942,VALID,337,VALID,0,
2008-07-25, 00:58:00,VALID,916.525,VALID,0,VALID,100,VALID,-0.0509425,VALID,18.9608,VALID,337,VALID,0,
2008-07-25, 00:59:00,VALID,916.494,VALID,0,VALID,100,VALID,-0.0679233,VALID,18.9321,VALID,337,VALID,0,
2008-07-25, 01:00:00,VALID,916.475,VALID,0,VALID,100,VALID,-0.0849042,VALID,18.8994,VALID,337,VALID,0,
2008-07-25, 01:01:00,VALID,916.464,VALID,0,VALID,100,VALID,-0.0169808,VALID,18.8345,VALID,337,VALID,0,
2008-07-25, 01:02:00,VALID,916.47,VALID,0,VALID,100,VALID,-0.0339617,VALID,18.8053,VALID,337,VALID,0,
2008-07-25, 01:03:00,VALID,916.455,VALID,0,VALID,100,VALID,-0.0339617,VALID,18.8186,VALID,337,VALID,0,
2008-07-25, 01:04:00,VALID,916.436,VALID,0,VALID,100,VALID,-0.0509425,VALID,18.8475,VALID,337,VALID,0,
2008-07-25, 01:05:00,VALID,916.408,VALID,0,VALID,100,VALID,-0.0339617,VALID,18.8837,VALID,337,VALID,0,
2008-07-25, 01:06:00,VALID,916.386,VALID,0,VALID,100,VALID,-0.0169808,VALID,18.8832,VALID,337,VALID,0,
2008-07-25, 01:07:00,VALID,916.365,VALID,0,VALID,100,VALID,-0.0339617,VALID,18.8897,VALID,337,VALID,0,
2008-07-25, 01:08:00,VALID,916.346,VALID,0,VALID,100,VALID,-0.0509425,VALID,18.9062,VALID,337,VALID,0,
2008-07-25, 01:09:00,VALID,916.317,VALID,0,VALID,100,VALID,-0.0679233,VALID,18.9224,VALID,336,VALID,0,
2008-07-25, 01:10:00,VALID,916.313,VALID,0,VALID,100,VALID,-0.0509425,VALID,18.9256,VALID,252,VALID,0,
2008-07-25, 01:11:00,VALID,916.281,VALID,0,VALID,100,VALID,-0.0339617,VALID,18.9189,VALID,244,VALID,0,
2008-07-25, 01:12:00,VALID,916.281,VALID,0,VALID,100,VALID,-0.0169808,VALID,18.8994,VALID,238,VALID,0,
2008-07-25, 01:13:00,VALID,916.266,VALID,0,VALID,100,VALID,-0.0339617,VALID,18.8925,VALID,238,VALID,0,
2008-07-25, 01:14:00,VALID,916.258,VALID,0,VALID,100,VALID,-0.0339617,VALID,18.8959,VALID,238,VALID,0,
2008-07-25, 01:15:00,VALID,916.266,VALID,0,VALID,100,VALID,-0.0339617,VALID,18.8994,VALID,238,VALID,0,
2008-07-25, 01:16:00,VALID,916.272,VALID,0,VALID,100,VALID,-0.0339617,VALID,18.8994,VALID,238,VALID,0,
2008-07-25, 01:17:00,VALID,916.271,VALID,0,VALID,100,VALID,-0.0169808,VALID,18.8997,VALID,238,VALID,0,
2008-07-25, 01:18:00,VALID,916.286,VALID,0,VALID,100,VALID,-0.118866,VALID,18.9071,VALID,238,VALID,0,
2008-07-25, 01:19:00,VALID,916.303,VALID,0,VALID,100,VALID,-0.152827,VALID,18.8941,VALID,238,VALID,0,
2008-07-25, 01:20:00,VALID,916.293,VALID,0,VALID,100,VALID,-0.118866,VALID,18.9041,VALID,238,VALID,0,
2008-07-25, 01:21:00,VALID,916.3,VALID,0,VALID,100,VALID,-0.152827,VALID,18.9041,VALID,238,VALID,0,
2008-07-25, 01:22:00,VALID,916.287,VALID,0,VALID,100,VALID,-0.135847,VALID,18.8457,VALID,238,VALID,0,
2008-07-25, 01:23:00,VALID,916.28,VALID,0,VALID,100,VALID,-0.169808,VALID,18.8262,VALID,238,VALID,0,
2008-07-25, 01:24:00,VALID,916.262,VALID,0,VALID,100,VALID,-0.101885,VALID,18.8163,VALID,238,VALID,0,
2008-07-25, 01:25:00,VALID,916.246,VALID,0,VALID,100,VALID,-0.135847,VALID,18.7834,VALID,238,VALID,0,
2008-07-25, 01:26:00,VALID,916.233,VALID,0,VALID,100,VALID,-0.118866,VALID,18.7741,VALID,238,VALID,0,
2008-07-25, 01:27:00,VALID,916.209,VALID,0,VALID,100,VALID,-0.118866,VALID,18.7711,VALID,238,VALID,0,
2008-07-25, 01:28:00,VALID,916.177,VALID,0,VALID,100,VALID,-0.152827,VALID,18.7743,VALID,238,VALID,0,
2008-07-25, 01:29:00,VALID,916.167,VALID,0,VALID,100,VALID,-0.152827,VALID,18.7998,VALID,238,VALID,0,
2008-07-25, 01:30:00,VALID,916.144,VALID,0,VALID,100,VALID,-0.135847,VALID,18.836,VALID,238,VALID,0,
2008-07-25, 01:31:00,VALID,916.14,VALID,0,VALID,100,VALID,-0.135847,VALID,18.8487,VALID,238,VALID,0,
2008-07-25, 01:32:00,VALID,916.153,VALID,0,VALID,100,VALID,-0.186789,VALID,18.8587,VALID,238,VALID,0,
2008-07-25, 01:33:00,VALID,916.176,VALID,0,VALID,100,VALID,-0.0679233,VALID,18.864,VALID,238,VALID,0,
2008-07-25, 01:34:00,VALID,916.175,VALID,0,VALID,100,VALID,-0.0679233,VALID,18.8802,VALID,238,VALID,0,
2008-07-25, 01:35:00,VALID,916.19,VALID,0,VALID,100,VALID,-0.0509425,VALID,18.8994,VALID,238,VALID,0,
2008-07-25, 01:36:00,VALID,916.179,VALID,0,VALID,100,VALID,-0.0679233,VALID,18.8932,VALID,238,VALID,0,
2008-07-25, 01:37:00,VALID,916.163,VALID,0,VALID,100,VALID,-0.0169808,VALID,18.8932,VALID,238,VALID,0,
2008-07-25, 01:38:00,VALID,916.159,VALID,0,VALID,100,VALID,-0.0849042,VALID,18.8874,VALID,238,VALID,0,
2008-07-25, 01:39:00,VALID,916.142,VALID,0,VALID,100,VALID,0,VALID,18.8802,VALID,238,VALID,0,
2008-07-25, 01:40:00,VALID,916.139,VALID,0,VALID,100,VALID,-0.0169808,VALID,18.8735,VALID,238,VALID,0,
2008-07-25, 01:41:00,VALID,916.142,VALID,0,VALID,100,VALID,-0.0679233,VALID,18.8834,VALID,238,VALID,0,
2008-07-25, 01:42:00,VALID,916.166,VALID,0,VALID,100,VALID,-0.0509425,VALID,18.8837,VALID,238,VALID,0,
2008-07-25, 01:43:00,VALID,916.195,VALID,0,VALID,100,VALID,-0.0679233,VALID,18.8702,VALID,238,VALID,0,
2008-07-25, 01:44:00,VALID,916.235,VALID,0,VALID,100,VALID,-0.0509425,VALID,18.8413,VALID,238,VALID,0,
2008-07-25, 01:45:00,VALID,916.273,VALID,0,VALID,100,VALID,-0.0679233,VALID,18.7926,VALID,238,VALID,0,
2008-07-25, 01:46:00,VALID,916.309,VALID,0,VALID,100,VALID,-0.0169808,VALID,18.7602,VALID,238,VALID,0,
2008-07-25, 01:47:00,VALID,916.335,VALID,0,VALID,100,VALID,-0.0509425,VALID,18.7145,VALID,238,VALID,0,
2008-07-25, 01:48:00,VALID,916.362,VALID,0,VALID,100,VALID,-0.0509425,VALID,18.6985,VALID,161,VALID,0,
2008-07-25, 01:49:00,VALID,916.369,VALID,0,VALID,100,VALID,-0.0679233,VALID,18.6629,VALID,88,VALID,0,
2008-07-25, 01:50:00,VALID,916.371,VALID,0,VALID,100,VALID,-0.0679233,VALID,18.6439,VALID,88,VALID,0,
2008-07-25, 01:51:00,VALID,916.36,VALID,0,VALID,100,VALID,-0.101885,VALID,18.6207,VALID,88,VALID,0,
2008-07-25, 01:52:00,VALID,916.359,VALID,0,VALID,100,VALID,-0.0849042,VALID,18.6409,VALID,88,VALID,0.275112,
2008-07-25, 01:53:00,VALID,916.335,VALID,0,VALID,100,VALID,-0.101885,VALID,18.6302,VALID,88,VALID,0,
2008-07-25, 01:54:00,VALID,916.315,VALID,0,VALID,100,VALID,-0.0679233,VALID,18.6337,VALID,88,VALID,0,
2008-07-25, 01:55:00,VALID,916.292,VALID,0,VALID,100,VALID,-0.0339617,VALID,18.6471,VALID,88,VALID,0,
2008-07-25, 01:56:00,VALID,916.263,VALID,0,VALID,100,VALID,-0.0679233,VALID,18.6561,VALID,88,VALID,0,
2008-07-25, 01:57:00,VALID,916.243,VALID,0,VALID,100,VALID,-0.0169808,VALID,18.6793,VALID,88,VALID,0,
2008-07-25, 01:58:00,VALID,916.227,VALID,0,VALID,100,VALID,-0.0679233,VALID,18.6886,VALID,92,VALID,0,
2008-07-25, 01:59:00,VALID,916.22,VALID,0,VALID,100,VALID,-0.0509425,VALID,18.7018,VALID,229,VALID,0,
2008-07-25, 02:00:00,VALID,916.222,VALID,0,VALID,100,VALID,-0.0849042,VALID,18.7113,VALID,246,VALID,0,
2008-07-25, 02:01:00,VALID,916.242,VALID,0,VALID,100,VALID,-0.0679233,VALID,18.7148,VALID,242,VALID,0,
2008-07-25, 02:02:00,VALID,916.27,VALID,0,VALID,100,VALID,-0.0169808,VALID,18.7148,VALID,231,VALID,0.0846354,
2008-07-25, 02:03:00,VALID,916.301,VALID,0,VALID,100,VALID,-0.0849042,VALID,18.7182,VALID,229,VALID,0.0242388,
2008-07-25, 02:04:00,VALID,916.334,VALID,0,VALID,100,VALID,-0.0849042,VALID,18.7113,VALID,229,VALID,0,
2008-07-25, 02:05:00,VALID,916.359,VALID,0,VALID,100,VALID,-0.0509425,VALID,18.7208,VALID,229,VALID,0,
2008-07-25, 02:06:00,VALID,916.37,VALID,0,VALID,100,VALID,-0.101885,VALID,18.7182,VALID,229,VALID,0,
2008-07-25, 02:07:00,VALID,916.351,VALID,0,VALID,100,VALID,-0.0339617,VALID,18.708,VALID,229,VALID,0,
2008-07-25, 02:08:00,VALID,916.344,VALID,0,VALID,100,VALID,-0.0509425,VALID,18.6953,VALID,229,VALID,0,
2008-07-25, 02:09:00,VALID,916.3,VALID,0,VALID,100,VALID,-0.0679233,VALID,18.6886,VALID,229,VALID,0.0240091,
2008-07-25, 02:10:00,VALID,916.268,VALID,0,VALID,100,VALID,-0.0679233,VALID,18.6953,VALID,226,VALID,0.00962936,
2008-07-25, 02:11:00,VALID,916.244,VALID,0,VALID,100,VALID,-0.0509425,VALID,18.708,VALID,226,VALID,0,
2008-07-25, 02:12:00,VALID,916.227,VALID,0,VALID,100,VALID,-0.0509425,VALID,18.721,VALID,226,VALID,0,
2008-07-25, 02:13:00,VALID,916.213,VALID,0,VALID,100,VALID,-0.0169808,VALID,18.7178,VALID,226,VALID,0,
2008-07-25, 02:14:00,VALID,916.217,VALID,0,VALID,100,VALID,-0.0849042,VALID,18.7372,VALID,226,VALID,0,
2008-07-25, 02:15:00,VALID,916.234,VALID,0,VALID,100,VALID,-0.0679233,VALID,18.7504,VALID,226,VALID,0,
2008-07-25, 02:16:00,VALID,916.247,VALID,0,VALID,100,VALID,-0.0849042,VALID,18.7667,VALID,226,VALID,0,
2008-07-25, 02:17:00,VALID,916.269,VALID,0,VALID,100,VALID,-0.0169808,VALID,18.7694,VALID,226,VALID,0,
2008-07-25, 02:18:00,VALID,916.276,VALID,0,VALID,100,VALID,-0.118866,VALID,18.7778,VALID,223,VALID,0,
2008-07-25, 02:19:00,VALID,916.305,VALID,0,VALID,100,VALID,-0.135847,VALID,18.7646,VALID,198,VALID,0,
2008-07-25, 02:20:00,VALID,916.309,VALID,0,VALID,100,VALID,-0.169808,VALID,18.7417,VALID,144,VALID,0,
2008-07-25, 02:21:00,VALID,916.32,VALID,0,VALID,100,VALID,-0.135847,VALID,18.7125,VALID,143,VALID,0,
2008-07-25, 02:22:00,VALID,916.335,VALID,0,VALID,100,VALID,-0.135847,VALID,18.6962,VALID,140,VALID,0,
2008-07-25, 02:23:00,VALID,916.321,VALID,0,VALID,100,VALID,-0.118866,VALID,18.69,VALID,138,VALID,0,
2008-07-25, 02:24:00,VALID,916.323,VALID,0,VALID,100,VALID,-0.135847,VALID,18.677,VALID,138,VALID,0,
2008-07-25, 02:25:00,VALID,916.308,VALID,0,VALID,100,VALID,-0.135847,VALID,18.6835,VALID,138,VALID,0,
2008-07-25, 02:26:00,VALID,916.273,VALID,0,VALID,100,VALID,-0.152827,VALID,18.6768,VALID,138,VALID,0,
2008-07-25, 02:27:00,VALID,916.256,VALID,0,VALID,100,VALID,-0.101885,VALID,18.6833,VALID,138,VALID,0,
2008-07-25, 02:28:00,VALID,916.224,VALID,0,VALID,100,VALID,-0.152827,VALID,18.703,VALID,138,VALID,0,
2008-07-25, 02:29:00,VALID,916.197,VALID,0,VALID,100,VALID,-0.135847,VALID,18.7356,VALID,138,VALID,0,
2008-07-25, 02:30:00,VALID,916.176,VALID,0,VALID,100,VALID,-0.118866,VALID,18.7384,VALID,138,VALID,0,
2008-07-25, 02:31:00,VALID,916.164,VALID,0,VALID,100,VALID,-0.118866,VALID,18.7319,VALID,138,VALID,0,
2008-07-25, 02:32:00,VALID,916.149,VALID,0,VALID,100,VALID,-0.152827,VALID,18.7187,VALID,138,VALID,0,
2008-07-25, 02:33:00,VALID,916.144,VALID,0,VALID,100,VALID,-0.0849042,VALID,18.7409,VALID,138,VALID,0,
2008-07-25, 02:34:00,VALID,916.141,VALID,0,VALID,100,VALID,-0.0849042,VALID,18.7372,VALID,138,VALID,0,
2008-07-25, 02:35:00,VALID,916.156,VALID,0,VALID,100,VALID,-0.0679233,VALID,18.7504,VALID,138,VALID,0,
2008-07-25, 02:36:00,VALID,916.16,VALID,0,VALID,100,VALID,-0.0849042,VALID,18.7764,VALID,138,VALID,0,
2008-07-25, 02:37:00,VALID,916.178,VALID,0,VALID,100,VALID,-0.101885,VALID,18.7961,VALID,126,VALID,0,
2008-07-25, 02:38:00,VALID,916.178,VALID,0,VALID,100,VALID,-0.0849042,VALID,18.8053,VALID,67,VALID,0,
2008-07-25, 02:39:00,VALID,916.191,VALID,0,VALID,100,VALID,-0.101885,VALID,18.8056,VALID,53,VALID,0,
2008-07-25, 02:40:00,VALID,916.167,VALID,0,VALID,100,VALID,-0.101885,VALID,18.7926,VALID,48,VALID,0,
2008-07-25, 02:41:00,VALID,916.157,VALID,0,VALID,100,VALID,-0.101885,VALID,18.7829,VALID,48,VALID,0,
2008-07-25, 02:42:00,VALID,916.145,VALID,0,VALID,100,VALID,-0.118866,VALID,18.7762,VALID,48,VALID,0,
2008-07-25, 02:43:00,VALID,916.125,VALID,0,VALID,100,VALID,-0.0849042,VALID,18.7928,VALID,48,VALID,0,
2008-07-25, 02:44:00,VALID,916.118,VALID,0,VALID,100,VALID,-0.0679233,VALID,18.8023,VALID,48,VALID,0,
2008-07-25, 02:45:00,VALID,916.12,VALID,0,VALID,100,VALID,-0.0849042,VALID,18.7924,VALID,48,VALID,0,
2008-07-25, 02:46:00,VALID,916.098,VALID,0,VALID,100,VALID,-0.101885,VALID,18.8058,VALID,48,VALID,0,
2008-07-25, 02:47:00,VALID,916.099,VALID,0,VALID,100,VALID,-0.0849042,VALID,18.8023,VALID,48,VALID,0,
2008-07-25, 02:48:00,VALID,916.097,VALID,0,VALID,100,VALID,-0.101885,VALID,18.8153,VALID,48,VALID,0,
2008-07-25, 02:49:00,VALID,916.09,VALID,0,VALID,100,VALID,-0.152827,VALID,18.8223,VALID,48,VALID,0,
2008-07-25, 02:50:00,VALID,916.101,VALID,0,VALID,100,VALID,-0.0849042,VALID,18.8417,VALID,48,VALID,0,
2008-07-25, 02:51:00,VALID,916.091,VALID,0,VALID,100,VALID,-0.101885,VALID,18.8542,VALID,48,VALID,0,
2008-07-25, 02:52:00,VALID,916.084,VALID,0,VALID,100,VALID,-0.101885,VALID,18.8772,VALID,48,VALID,0,
2008-07-25, 02:53:00,VALID,916.086,VALID,0,VALID,100,VALID,-0.118866,VALID,18.8672,VALID,48,VALID,0,
2008-07-25, 02:54:00,VALID,916.073,VALID,0,VALID,100,VALID,-0.135847,VALID,18.8839,VALID,48,VALID,0,
2008-07-25, 02:55:00,VALID,916.054,VALID,0,VALID,100,VALID,-0.118866,VALID,18.8802,VALID,48,VALID,0,
2008-07-25, 02:56:00,VALID,916.047,VALID,0,VALID,100,VALID,-0.118866,VALID,18.8605,VALID,48,VALID,0,
2008-07-25, 02:57:00,VALID,916.031,VALID,0,VALID,100,VALID,-0.118866,VALID,18.8679,VALID,48,VALID,0,
2008-07-25, 02:58:00,VALID,916.007,VALID,0,VALID,100,VALID,-0.0849042,VALID,18.8383,VALID,48,VALID,0,
2008-07-25, 02:59:00,VALID,915.986,VALID,0,VALID,100,VALID,-0.101885,VALID,18.7993,VALID,48,VALID,0,
2008-07-25, 03:00:00,VALID,915.951,VALID,0,VALID,100,VALID,-0.118866,VALID,18.7829,VALID,48,VALID,0,
2008-07-25, 03:01:00,VALID,915.937,VALID,0,VALID,100,VALID,-0.101885,VALID,18.7966,VALID,48,VALID,0,
2008-07-25, 03:02:00,VALID,915.916,VALID,0,VALID,100,VALID,-0.0849042,VALID,18.7926,VALID,48,VALID,0,
2008-07-25, 03:03:00,VALID,915.902,VALID,0,VALID,100,VALID,-0.118866,VALID,18.7986,VALID,48,VALID,0,
2008-07-25, 03:04:00,VALID,915.888,VALID,0,VALID,100,VALID,-0.101885,VALID,18.7667,VALID,48,VALID,0,
2008-07-25, 03:05:00,VALID,915.868,VALID,0,VALID,100,VALID,-0.0679233,VALID,18.7472,VALID,48,VALID,0,
2008-07-25, 03:06:00,VALID,915.861,VALID,0,VALID,100,VALID,-0.101885,VALID,18.747,VALID,48,VALID,0,
2008-07-25, 03:07:00,VALID,915.86,VALID,0,VALID,100,VALID,-0.135847,VALID,18.7734,VALID,48,VALID,0,
2008-07-25, 03:08:00,VALID,915.823,VALID,0,VALID,100,VALID,-0.118866,VALID,18.7901,VALID,48,VALID,0,
2008-07-25, 03:09:00,VALID,915.805,VALID,0,VALID,100,VALID,-0.101885,VALID,18.7966,VALID,48,VALID,0,
2008-07-25, 03:10:00,VALID,915.792,VALID,0,VALID,100,VALID,-0.101885,VALID,18.7924,VALID,48,VALID,0,
2008-07-25, 03:11:00,VALID,915.779,VALID,0,VALID,100,VALID,-0.101885,VALID,18.8061,VALID,48,VALID,0,
2008-07-25, 03:12:00,VALID,915.784,VALID,0,VALID,100,VALID,-0.118866,VALID,18.8021,VALID,48,VALID,0,
2008-07-25, 03:13:00,VALID,915.79,VALID,0,VALID,100,VALID,-0.101885,VALID,18.8056,VALID,48,VALID,0,
2008-07-25, 03:14:00,VALID,915.782,VALID,0,VALID,100,VALID,-0.118866,VALID,18.7991,VALID,48,VALID,0,
2008-07-25, 03:15:00,VALID,915.78,VALID,0,VALID,100,VALID,-0.101885,VALID,18.7764,VALID,42,VALID,0,
2008-07-25, 03:16:00,VALID,915.779,VALID,0,VALID,100,VALID,-0.101885,VALID,18.7502,VALID,41,VALID,0,
2008-07-25, 03:17:00,VALID,915.774,VALID,0,VALID,100,VALID,-0.101885,VALID,18.7113,VALID,38,VALID,0,
2008-07-25, 03:18:00,VALID,915.764,VALID,0,VALID,100,VALID,-0.118866,VALID,18.6955,VALID,34,VALID,0,
2008-07-25, 03:19:00,VALID,915.768,VALID,0,VALID,100,VALID,-0.0849042,VALID,18.6494,VALID,34,VALID,0,
2008-07-25, 03:20:00,VALID,915.757,VALID,0,VALID,100,VALID,-0.101885,VALID,18.6564,VALID,34,VALID,0,
2008-07-25, 03:21:00,VALID,915.744,VALID,0,VALID,100,VALID,-0.118866,VALID,18.6633,VALID,34,VALID,0,
2008-07-25, 03:22:00,VALID,915.731,VALID,0,VALID,100,VALID,-0.101885,VALID,18.6691,VALID,34,VALID,0,
2008-07-25, 03:23:00,VALID,915.724,VALID,0,VALID,100,VALID,-0.101885,VALID,18.6823,VALID,34,VALID,0,
2008-07-25, 03:24:00,VALID,915.72,VALID,0,VALID,100,VALID,-0.101885,VALID,18.7085,VALID,34,VALID,0,
2008-07-25, 03:25:00,VALID,915.734,VALID,0,VALID,100,VALID,-0.118866,VALID,18.7182,VALID,33,VALID,0,
2008-07-25, 03:26:00,VALID,915.734,VALID,0,VALID,100,VALID,-0.118866,VALID,18.7312,VALID,33,VALID,0,
2008-07-25, 03:27:00,VALID,915.746,VALID,0,VALID,100,VALID,-0.0679233,VALID,18.7572,VALID,33,VALID,0,
2008-07-25, 03:28:00,VALID,915.747,VALID,0,VALID,100,VALID,-0.0679233,VALID,18.7632,VALID,33,VALID,0,
2008-07-25, 03:29:00,VALID,915.747,VALID,0,VALID,100,VALID,-0.0849042,VALID,18.7507,VALID,33,VALID,0,
2008-07-25, 03:30:00,VALID,915.744,VALID,0,VALID,100,VALID,-0.101885,VALID,18.7277,VALID,33,VALID,0,
2008-07-25, 03:31:00,VALID,915.738,VALID,0,VALID,100,VALID,-0.101885,VALID,18.692,VALID,33,VALID,0,
2008-07-25, 03:32:00,VALID,915.721,VALID,0,VALID,100,VALID,-0.0849042,VALID,18.6923,VALID,34,VALID,0,
2008-07-25, 03:33:00,VALID,915.701,VALID,0,VALID,100,VALID,-0.101885,VALID,18.692,VALID,34,VALID,0,
2008-07-25, 03:34:00,VALID,915.696,VALID,0,VALID,100,VALID,-0.101885,VALID,18.6826,VALID,34,VALID,0,
2008-07-25, 03:35:00,VALID,915.703,VALID,0,VALID,100,VALID,-0.0849042,VALID,18.6758,VALID,26,VALID,0,
2008-07-25, 03:36:00,VALID,915.704,VALID,0,VALID,100,VALID,-0.101885,VALID,18.6307,VALID,26,VALID,0,
2008-07-25, 03:37:00,VALID,915.717,VALID,0,VALID,100,VALID,-0.0849042,VALID,18.592,VALID,20,VALID,0.186955,
2008-07-25, 03:38:00,VALID,915.71,VALID,0,VALID,100,VALID,-0.0849042,VALID,18.5685,VALID,30,VALID,0,
2008-07-25, 03:39:00,VALID,915.737,VALID,0,VALID,100,VALID,-0.0509425,VALID,18.5718,VALID,32,VALID,0.00093006,
2008-07-25, 03:40:00,VALID,915.732,VALID,0,VALID,100,VALID,-0.0679233,VALID,18.5588,VALID,26,VALID,0.444767,
2008-07-25, 03:41:00,VALID,915.73,VALID,0,VALID,100,VALID,-0.0849042,VALID,18.5261,VALID,20,VALID,0.30599,
2008-07-25, 03:42:00,VALID,915.733,VALID,0,VALID,100,VALID,-0.118866,VALID,18.5264,VALID,25,VALID,0,
2008-07-25, 03:43:00,VALID,915.731,VALID,0,VALID,100,VALID,-0.101885,VALID,18.5199,VALID,17,VALID,0,
2008-07-25, 03:44:00,VALID,915.718,VALID,0,VALID,100,VALID,-0.0849042,VALID,18.4807,VALID,23,VALID,0.0483631,
2008-07-25, 03:45:00,VALID,915.725,VALID,0,VALID,100,VALID,-0.0509425,VALID,18.4615,VALID,18,VALID,0.74295,
2008-07-25, 03:46:00,VALID,915.735,VALID,0,VALID,100,VALID,-0.0849042,VALID,18.4451,VALID,18,VALID,0,
2008-07-25, 03:47:00,VALID,915.742,VALID,0,VALID,100,VALID,-0.0849042,VALID,18.4325,VALID,13,VALID,0,
2008-07-25, 03:48:00,VALID,915.748,VALID,0,VALID,100,VALID,-0.0509425,VALID,18.4066,VALID,10,VALID,0.241235,